Regional Weather Roundup
Issued by NWS

Home | Current Version | Previous Version | Graphics & Text | Print | Product List | Glossary On
Versions: 1 2 3 4 5 6 7 8 9 10 11 12 13 14 15 16 17 18 19 20 21 22 23 24 25 26 27 28 29 30 31 32 33 34 35 36 37 38 39 40 41 42 43 44 45 46 47 48 49 50
000
ASUS45 KPSR 291910
RWRAZ

ARIZONA REGIONAL HOURLY WEATHER ROUNDUP
NATIONAL WEATHER SERVICE PHOENIX AZ
1200 PM MST TUE JUL 29 2014

NOTE: FAIR INDICATES FEW OR NO CLOUDS BELOW 12,000 FEET WITH NO
SIGNIFICANT WEATHER AND/OR OBSTRUCTIONS TO VISIBILITY.

AZZ001>003-036-292000-
NORTHWEST ARIZONA

CITY           SKY/WX    TMP DP  RH WIND       PRES   REMARKS
BULLHEAD CITY  SUNNY    102  57  22 SW8       29.93F HX 101
KINGMAN        MOSUNNY   93  50  23 SW9G20    30.13F
$$

AZZ004>008-015-016-018-292000-
NORTH CENTRAL ARIZONA

CITY           SKY/WX    TMP DP  RH WIND       PRES   REMARKS
GRAND CANYON   PTSUNNY   78  48  34 W10G22    30.36F
WILLIAMS       MOSUNNY   75  54  46 W9G16     30.44S
PRESCOTT       PTSUNNY   85  53  33 CALM      30.25F
FLAGSTAFF      MOSUNNY   77  48  35 SW13G21   30.39F
PAYSON         PTSUNNY   88  52  29 W10G16    30.28F
PAGE           SUNNY     90  50  25 VRB5      30.15F
$$

AZZ009>014-017-292000-
NORTHEAST ARIZONA

CITY           SKY/WX    TMP DP  RH WIND       PRES   REMARKS
WINSLOW        MOSUNNY   90  50  25 VRB3      30.22F
SAINT JOHNS    MOSUNNY   82  51  34 VRB3      30.28F
WINDOW ROCK    PTSUNNY   80  50  34 VRB7      30.35F
SHOW LOW       MOSUNNY   81  48  32 NW6       30.36F
$$

AZZ023-292000-
GREATER PHOENIX AREA

CITY           SKY/WX    TMP DP  RH WIND       PRES   REMARKS
PHOENIX        PTSUNNY  102  58  23 NW5       29.94F HX 102
BUCKEYE          N/A    100  57  23 SE5       29.96F
GLENDALE       MOSUNNY  102  57  22 SW3       29.96F HX 101
LUKE AFB       NOT AVBL
DEER VALLEY    SUNNY     99  57  24 VRB6      29.97F
SCOTTSDALE     SUNNY    101  59  24 S6        29.99F HX 101
MESA-FALCON    MOSUNNY  100  59  25 S8        29.97F HX 100
MESA-GATEWAY   MOSUNNY  100  59  25 NW3       29.98F HX 100
CHANDLER       PTSUNNY  100  59  25 SW8       29.97F HX 100
$$

AZZ027-028-292000-
SOUTHWEST MARICOPA COUNTY AND PINAL COUNTY

CITY           SKY/WX    TMP DP  RH WIND       PRES   REMARKS
CASA GRANDE    SUNNY     99  57  25 CALM      29.99F
GILA BEND      PTCLDY   104  55  20 VRB3      29.96F HX 103
$$

AZZ503-504-507>509-292000-
SOUTHEAST ARIZONA

CITY           SKY/WX    TMP DP  RH WIND       PRES   REMARKS
TUCSON         MOSUNNY   96  56  26 CALM      30.09F
DAVIS-MONTHAN  SUNNY     93  58  30 S6        30.08F
RYAN FIELD       N/A     97  57  26 CALM      30.08F
NOGALES        MOSUNNY   93  58  30 VRB6      30.17F
SIERRA VISTA   PTSUNNY   86  55  35 CALM      30.24F
DOUGLAS        PTSUNNY   85  61  44 S13       30.21F
SAFFORD        MOSUNNY   93  58  30 W7        30.10F
$$

AZZ020-021-025-026-031-292000-
SOUTHWEST ARIZONA

CITY           SKY/WX    TMP DP  RH WIND       PRES   REMARKS
YUMA           MOSUNNY  105  53  17 S3        29.90F HX 103
$$

CAZ031-033-041-043-047-048-061-292000-
SOUTHERN CALIFORNIA

CITY           SKY/WX    TMP DP  RH WIND       PRES   REMARKS
DOWNTOWN L.A.  MOSUNNY   83  61  47 CALM      30.00F
L.A. AIRPORT   PTSUNNY   74  64  71 W8        30.03F
SAN DIEGO      PTSUNNY   82  64  54 NW10      30.02F
BURBANK        MOSUNNY   86  48  26 SE6       30.02F
ONTARIO        CLOUDY    90  45  21 VRB7      30.02F
RIVERSIDE      SUNNY     91  43  18 VRB6      30.02F
PALM SPRINGS   PTSUNNY  108  48  13 NW9       29.91F HX 104
EL CENTRO NAS  PTSUNNY  106  49  14 CALM      29.87F HX 103
IMPERIAL       SUNNY    105  51  16 CALM      29.87F HX 102
BLYTHE           N/A    N/A N/A N/A MISG      29.90F
NEEDLES        SUNNY    101  58  24 VRB3      29.94F HX 100
$$

NVZ020-UTZ003-292000-
SOUTHERN NEVADA-UTAH

CITY           SKY/WX    TMP DP  RH WIND       PRES   REMARKS
LAS VEGAS      MOSUNNY   94  57  28 CALM      30.00F
SALT LAKE CITY TSTM      71  60  68 N5        30.20R
$$

NMZ009-TXZ055-292000-
NEW MEXICO-WEST TEXAS

CITY           SKY/WX    TMP DP  RH WIND       PRES   REMARKS
ALBUQUERQUE    MOSUNNY   79  58  48 S8        30.27F
EL PASO        PTSUNNY   75  65  70 N8        30.21F
$$


........................KEY........................
SKY/WX - SKY CONDITION/WEATHER
TMP    - TEMPERATURE IN FAHRENHEIT
DP     - DEW POINT IN FAHRENHEIT
RH     - RELATIVE HUMIDITY IN PERCENT
WIND   - DIRECTION AND SPEED IN MILES PER HOUR (MPH)
VRB    - VARIABLE WIND DIRECTION
PRES   - MEAN SEA LEVEL PRESSURE IN INCHES OF MERCURY
         F - FALLING PRESSURE   R - RISING PRESSURE
         S - STEADY PRESSURE
VSB    - VISIBILITY IN MILES
HX     - HEAT INDEX IN FAHRENHEIT
WCI    - WIND CHILL INDEX IN FAHRENHEIT
TC     - TEMPERATURE IN CELSIUS WHICH IS ALSO KNOWN AS
         TEMPERATURE IN CENTIGRADE
AFB    - AIR FORCE BASE
         LUKE AFB IS LUKE AIR FORCE BASE
         DAVIS-MONTHAN IS DAVIS-MONTHAN AIR FORCE BASE
NAS    - NAVAL AIR STATION
         EL CENTRO NAS IS EL CENTRO NAVAL AIR STATION
N/A    - NOT AVAILABLE



USA.gov is the U.S. government's official web portal to all federal, state and local government web resources and services.